Mountain Home Air Force Base, ID

10:36 AM MDT on September 27, 2016 (GMT -0600)
Mountain Home Air Force Base

Weather History for KMUO - September, 2013

Change the Weather History Date:

Thursday, September 12, 2013

  Actual Average Record
Temperature  
Mean Temperature 75 °F 65 °F  
Max Temperature 86 °F 82 °F 102 °F (1953)
Min Temperature 64 °F 47 °F 28 °F (1921)
Degree Days  
Heating Degree Days 0 3  
Month to date heating degree days 0 23  
Cooling Degree Days 10 3  
Month to date cooling degree days 99 55  
Growing Degree Days 25 (Base 50)    
Moisture  
Dew Point 58 °F    
Average Humidity 67    
Maximum Humidity 100    
Minimum Humidity 31    
Precipitation  
Precipitation 0.02 in 0.01 in 0.35 in (1967)
Month to date precipitation 0.03 0.16  
Sea Level Pressure  
Sea Level Pressure 30.02 in    
Wind  
Wind Speed 9 mph (SE)    
Max Wind Speed 26 mph    
Max Gust Speed 34 mph    
Visibility 10 miles    
Events Rain , Thunderstorm    
T = Trace of Precipitation, MM = Missing Value Source: NWS Daily Summary

Daily Weather History Graph

Daily Weather History Graph

Search for Another Location

Airport or City:

Trip Planner

Search our weather history database for the weather conditions in past years. The results will help you decide how hot, cold, wet, or windy it might be!

Date:

Astronomy

Sep. 12, 2013 Rise Set
Actual Time 7:20 AM MDT 7:58 PM MDT
Civil Twilight 6:51 AM MDT 8:26 PM MDT
Nautical Twilight 6:17 AM MDT 9:00 PM MDT
Astronomical Twilight 5:42 AM MDT 9:35 PM MDT
Moon 3:02 PM MDT (9/12) No Moon Set
Length of Visible Light 13h 35m
Length of Day
12h 38m
Waxing Crescent, 51% of the Moon is Illuminated
Sep 12
Waxing Crescent
Sep 19
Full
Sep 26
Last Quarter
Oct 4
New
Oct 11
First Quarter

Hourly Weather History & Observations

Time (MDT) Temp. Heat Index Dew Point Humidity Pressure Visibility Wind Dir Wind Speed Gust Speed Precip Events Conditions
3:55 AM 71.6 °F - 51.8 °F 50% 29.95 in 10.0 mi East 4.6 mph - N/A   Mostly Cloudy
4:55 AM 69.8 °F - 51.8 °F 53% 29.95 in 10.0 mi SE 8.1 mph - N/A   Overcast
5:55 AM 69.8 °F - 57.2 °F 64% 29.96 in 10.0 mi East 26.5 mph 33.4 mph N/A Rain Light Rain
6:58 AM 66.2 °F - 60.8 °F 83% 30.00 in 8.0 mi East 18.4 mph 25.3 mph N/A Rain Rain
7:58 AM 64.4 °F - 62.6 °F 94% 30.09 in - South 5.8 mph - N/A Rain Light Rain
8:06 AM 64.4 °F - 62.6 °F 94% 30.02 in 6.0 mi South 5.8 mph - N/A Rain Light Rain
8:59 AM 64.4 °F - 64.4 °F 100% 30.10 in 6.0 mi WSW 5.8 mph - N/A   Overcast
9:58 AM 66.2 °F - 60.8 °F 83% 30.09 in 10.0 mi West 4.6 mph - N/A   Mostly Cloudy
9:59 AM 66.2 °F - 60.8 °F 83% 30.09 in 10.0 mi West 4.6 mph - N/A   Mostly Cloudy
10:14 AM 68.0 °F - 62.6 °F 83% 30.10 in 10.0 mi WSW 3.5 mph - N/A   Mostly Cloudy
10:55 AM 71.6 °F - 60.8 °F 69% 30.09 in 10.0 mi SSE 4.6 mph - N/A   Mostly Cloudy
11:59 AM 75.2 °F - 59.0 °F 57% 30.07 in 10.0 mi SSE 8.1 mph - N/A   Clear
12:05 PM 75.2 °F - 59.0 °F 57% 30.07 in 10.0 mi SSE 5.8 mph - N/A   Mostly Cloudy
12:57 PM 78.8 °F - 57.2 °F 47% 30.04 in 10.0 mi ESE 9.2 mph - N/A   Mostly Cloudy
1:59 PM 82.4 °F 81.7 °F 55.4 °F 39% 30.01 in 10.0 mi SE 8.1 mph 20.7 mph N/A   Mostly Cloudy
2:54 PM 84.2 °F 82.8 °F 53.6 °F 35% 29.98 in 10.0 mi SE 10.4 mph - N/A   Scattered Clouds
3:55 PM 86.0 °F - 51.8 °F 31% 29.95 in 10.0 mi West 5.8 mph - N/A   Scattered Clouds
4:56 PM 84.2 °F - 51.8 °F 33% 29.93 in 10.0 mi North 10.4 mph - N/A   Mostly Cloudy
5:55 PM 77.0 °F - 55.4 °F 47% 29.98 in 10.0 mi ENE 17.3 mph 34.5 mph N/A Rain , Thunderstorm Light Thunderstorms and Rain
6:55 PM 71.6 °F - 60.8 °F 69% 29.96 in 10.0 mi Variable 4.6 mph - N/A Thunderstorm Mostly Cloudy
7:59 PM 71.6 °F - 53.6 °F 53% 30.01 in 7.0 mi ENE 16.1 mph - N/A Rain , Thunderstorm Light Thunderstorms and Rain
8:56 PM 66.2 °F - 60.8 °F 83% 30.01 in 10.0 mi NW 8.1 mph - N/A Rain , Thunderstorm Light Rain Showers
9:55 PM 64.4 °F - 59.0 °F 83% 30.00 in 10.0 mi North 12.7 mph - 0.00 in Rain Light Rain Showers
10:55 PM 64.4 °F - 57.2 °F 77% 30.01 in 10.0 mi NNW 5.8 mph - 0.00 in   Mostly Cloudy
11:55 PM 60.8 °F - 60.8 °F 100% 30.01 in 10.0 mi NW 2.3 mph - 0.02 in   Mostly Cloudy